Location: Unspecified
(41.1637°N, 24.2901°E)
Time: 22:49:18
(UTC+02:00)

X-37B - Pass Details

Date: 13 March 2021
Orbit: 380 x 394 km, 45.0° (Epoch: 07 April)

Event Time Altitude Azimuth Distance (km) Brightness Sun altitude
Rises 18:20:25 0° 240° (WSW) 2,260 5.4 -10.8°
Reaches altitude 10° 18:22:29 10° 237° (WSW) 1,411 4.2 -11.2°
Maximum altitude 18:25:38 66° 155° (SSE) 427 0.6 -11.8°
Enters shadow 18:27:41 20° 76° (ENE) 974 2.0 -12.2°
